Location: Newark
(44.3248°N, 23.7839°E)
Time: 18:04:04
(UTC+00:00)

NOAA 19 - Pass Details

Date: 26 April 2024
Orbit: 839 x 859 km, 99.0° (Epoch: 29 May)

Event Time Altitude Azimuth Distance (km) Brightness Sun altitude
Exits shadow 18:10:15 - 134° (SE) 2,522 7.1 -8.5°
Reaches altitude 10° 18:10:26 10° 133° (SE) 2,458 7.0 -8.5°
Maximum altitude 18:15:26 39° 67° (ENE) 1,247 5.8 -9.3°
Drops below altitude 10° 18:20:27 10° 360° (N) 2,466 8.1 -10.0°
Sets 18:22:57 0° 353° (N) 3,404 8.9 -10.4°
